CW3467 Weather Reports


time (UTC)temp
C
wind
direction
speed
KPH
gust
KPH
rain 1hr
cm
rain 24hr
cm
rain mn
cm
humidity
%
barometer
mb
20260507133004 20 48 4.8 17.7 0.00 0.00 0.00 49 1012.0
20260507132504 20 48 3.2 14.5 0.00 0.00 0.00 50 1011.9
20260507132004 20 45 4.8 14.5 0.00 0.00 0.00 46 1011.9
20260507131504 20 45 4.8 12.9 0.00 0.00 0.00 46 1012.0
20260507131004 20 40 3.2 12.9 0.00 0.00 0.00 45 1012.2
20260507130505 20 3 3.2 12.9 0.00 0.00 0.00 49 1012.1
20260507130005 20 295 3.2 9.7 0.00 0.00 0.00 46 1012.2
20260507125505 20 284 3.2 11.3 0.00 0.00 0.00 45 1012.3
20260507125004 20 310 4.8 12.9 0.00 0.00 0.00 45 1012.2
20260507124504 19 308 4.8 12.9 0.00 0.00 0.00 44 1012.4
20260507124004 20 298 4.8 14.5 0.00 0.00 0.00 49 1012.4
20260507123504 19 298 3.2 14.5 0.00 0.00 0.00 49 1012.3
20260507123005 20 301 1.6 12.9 0.00 0.00 0.00 45 1012.4
20260507122504 20 349 3.2 14.5 0.00 0.00 0.00 49 1012.5
20260507122005 20 17 3.2 14.5 0.00 0.00 0.00 48 1012.4
20260507121504 19 321 3.2 11.3 0.00 0.00 0.00 51 1012.6
20260507121004 20 300 3.2 11.3 0.00 0.00 0.00 50 1012.7
20260507120525 20 308 3.2 11.3 0.00 0.00 0.00 49 1012.9
20260507120005 18 291 3.2 12.9 0.00 0.00 0.00 51 1012.7
20260507115504 20 279 3.2 12.9 0.00 0.00 0.00 47 1012.9
20260507115004 20 267 1.6 6.4 0.00 0.00 0.00 52 1012.9
20260507114504 20 355 1.6 9.7 0.00 0.00 0.00 52 1013.1
20260507114004 18 50 3.2 9.7 0.00 0.00 0.00 51 1013.1
20260507113504 19 345 3.2 11.3 0.00 0.00 0.00 52 1013.2
20260507113005 20 284 3.2 11.3 0.00 0.00 0.00 52 1013.4
20260507112504 19 276 3.2 12.9 0.00 0.00 0.00 53 1013.5
20260507112004 18 352 3.2 12.9 0.00 0.00 0.00 54 1013.4
20260507111506 18 50 3.2 11.3 0.00 0.00 0.00 50 1013.6
20260507111004 17 52 3.2 11.3 0.00 0.00 0.00 53 1013.4
20260507110525 18 340 3.2 12.9 0.00 0.00 0.00 54 1013.5
20260507110005 18 284 3.2 12.9 0.00 0.00 0.00 53 1013.8
20260507105504 19 274 1.6 9.7 0.00 0.00 0.00 50 1013.8
20260507105004 18 277 1.6 9.7 0.00 0.00 0.00 55 1013.8
20260507104505 18 279 3.2 6.4 0.00 0.00 0.00 53 1013.8
20260507104004 18 279 3.2 14.5 0.00 0.00 0.00 54 1014.0
20260507103525 17 269 3.2 14.5 0.00 0.00 0.00 59 1014.0
20260507103004 18 277 3.2 9.7 0.00 0.00 0.00 56 1013.8
20260507102504 18 291 1.6 9.7 0.00 0.00 0.00 55 1013.9
20260507102006 17 267 1.6 9.7 0.00 0.00 0.00 54 1014.0
20260507101504 17 275 3.2 9.7 0.00 0.00 0.00 56 1014.1
20260507101004 17 279 1.6 6.4 0.00 0.00 0.00 53 1014.2
20260507100504 17 262 1.6 6.4 0.00 0.00 0.00 60 1014.1
20260507100005 17 271 1.6 6.4 0.00 0.00 0.00 54 1014.1
20260507095504 16 86 1.6 6.4 0.00 0.00 0.00 57 1014.2
20260507095004 16 238 1.6 4.8 0.00 0.00 0.00 62 1014.3
20260507094504 16 196 1.6 3.2 0.00 0.00 0.00 63 1014.5
20260507094004 16 79 1.6 4.8 0.00 0.00 0.00 66 1014.3
20260507093525 15 43 1.6 4.8 0.00 0.00 0.00 66 1014.7
20260507093004 15 294 1.6 4.8 0.00 0.00 0.00 67 1014.6
20260507092525 16 273 1.6 4.8 0.00 0.00 0.00 67 1014.7
20260507092004 16 266 1.6 4.8 0.00 0.00 0.00 65 1014.8
20260507091504 15 288 1.6 4.8 0.00 0.00 0.00 69 1014.5
20260507091004 15 327 1.6 6.4 0.00 0.00 0.00 67 1014.5
20260507090504 15 305 1.6 6.4 0.00 0.00 0.00 67 1014.5
20260507090005 15 350 1.6 6.4 0.00 0.00 0.00 66 1014.6
20260507085504 14 40 1.6 4.8 0.00 0.00 0.00 70 1014.7
20260507085004 15 252 1.6 3.2 0.00 0.00 0.00 68 1014.7
20260507084504 14 257 1.6 3.2 0.00 0.00 0.00 70 1014.6
20260507084004 14 256 1.6 3.2 0.00 0.00 0.00 71 1014.7
20260507083504 13 253 1.6 3.2 0.00 0.00 0.00 71 1014.6
20260507083025 13 252 1.6 3.2 0.00 0.00 0.00 73 1014.8
20260507082525 13 266 1.6 4.8 0.00 0.00 0.00 75 1014.6
20260507082004 13 273 1.6 6.4 0.00 0.00 0.00 76 1014.6
20260507081504 12 28 1.6 6.4 0.00 0.00 0.00 79 1014.5
20260507081004 12 292 1.6 4.8 0.00 0.00 0.00 78 1014.5
20260507080504 12 258 1.6 4.8 0.00 0.00 0.00 79 1014.7
20260507080025 12 251 1.6 3.2 0.00 0.00 0.00 79 1014.7
20260507075504 12 255 1.6 3.2 0.00 0.00 0.00 79 1014.9
20260507075025 12 248 0.0 3.2 0.00 0.00 0.00 80 1014.7
20260507074504 11 251 1.6 3.2 0.00 0.00 0.00 80 1014.9
20260507074004 11 254 1.6 3.2 0.00 0.00 0.00 80 1014.7
20260507073504 11 251 1.6 3.2 0.00 0.00 0.00 80 1014.8
20260507073025 11 242 0.0 3.2 0.00 0.00 0.00 80 1015.0
20260507072504 12 235 0.0 1.6 0.00 0.00 0.00 78 1014.7
20260507072004 10 247 0.0 3.2 0.00 0.00 0.00 82 1014.8
20260507071504 10 243 0.0 3.2 0.00 0.00 0.00 84 1015.1
20260507071004 11 236 0.0 3.2 0.00 0.00 0.00 82 1015.1
20260507070504 10 240 0.0 3.2 0.00 0.00 0.00 83 1015.1
20260507070009 10 239 0.0 1.6 0.00 0.00 0.00 83 1014.8
20260507065504 10 239 0.0 1.6 0.00 0.00 0.00 82 1015.0
20260507065004 9 238 0.0 1.6 0.00 0.00 0.00 85 1014.7
20260507064504 9 235 0.0 1.6 0.00 0.00 0.00 88 1014.7
20260507064025 8 240 0.0 1.6 0.00 0.00 0.00 89 1015.0
20260507063504 8 244 0.0 1.6 0.00 0.00 0.00 90 1014.8
20260507063004 7 241 0.0 1.6 0.00 0.00 0.00 92 1014.7
20260507062504 7 243 0.0 1.6 0.00 0.00 0.00 93 1014.8
20260507062025 7 244 0.0 1.6 0.00 0.00 0.00 93 1014.8
20260507061504 7 237 0.0 1.6 0.00 0.00 0.00 93 1014.9
20260507061004 7 235 0.0 1.6 0.00 0.00 0.00 94 1014.7
20260507060505 6 231 0.0 1.6 0.00 0.00 0.00 93 1014.6
20260507060004 6 0 0.0 0.0 0.00 0.00 0.00 93 1014.3
20260507055504 6 220 0.0 1.6 0.00 0.00 0.00 93 1014.3
20260507055004 6 224 0.0 3.2 0.00 0.00 0.00 93 1014.3
20260507054504 6 224 0.0 3.2 0.00 0.00 0.00 93 1014.3
20260507054025 6 225 0.0 1.6 0.00 0.00 0.00 94 1014.5
20260507053525 6 236 0.0 1.6 0.00 0.00 0.00 94 1014.6
20260507053005 6 238 0.0 1.6 0.00 0.00 0.00 94 1014.3
20260507052504 6 234 0.0 1.6 0.00 0.00 0.00 93 1014.2
20260507052004 6 226 0.0 1.6 0.00 0.00 0.00 93 1014.5
20260507051525 6 225 0.0 1.6 0.00 0.00 0.00 93 1014.1
20260507051004 6 222 0.0 3.2 0.00 0.00 0.00 92 1014.2
20260507050504 6 221 0.0 3.2 0.00 0.00 0.00 92 1014.2
20260507050025 6 222 0.0 1.6 0.00 0.00 0.00 93 1014.3
20260507045504 6 223 0.0 1.6 0.00 0.00 0.00 92 1014.1
20260507045004 6 222 1.6 1.6 0.00 0.00 0.00 92 1014.1
20260507044525 6 222 1.6 1.6 0.00 0.00 0.00 92 1013.9
20260507044025 6 224 0.0 1.6 0.00 0.00 0.00 92 1013.9
20260507043504 6 225 0.0 1.6 0.00 0.00 0.00 92 1014.1
20260507043004 7 224 0.0 1.6 0.00 0.00 0.00 92 1014.0
20260507042504 7 225 0.0 1.6 0.00 0.00 0.00 92 1013.9
20260507042004 7 225 0.0 1.6 0.00 0.00 0.00 92 1014.0
20260507041504 7 223 0.0 1.6 0.00 0.00 0.00 91 1013.9
20260507041004 7 222 1.6 3.2 0.00 0.00 0.00 91 1014.0
20260507040504 7 222 1.6 3.2 0.00 0.00 0.00 91 1013.9
20260507040025 7 222 0.0 3.2 0.00 0.00 0.00 92 1013.9
20260507035504 7 223 0.0 1.6 0.00 0.00 0.00 91 1013.9
20260507035004 7 224 1.6 1.6 0.00 0.00 0.00 92 1013.8
20260507034504 7 225 1.6 1.6 0.00 0.00 0.00 92 1014.0
20260507034004 7 223 1.6 1.6 0.00 0.00 0.00 92 1013.8
20260507033504 7 223 1.6 1.6 0.00 0.00 0.00 91 1014.2
20260507033025 7 225 0.0 1.6 0.00 0.00 0.00 92 1014.0
20260507032504 7 221 0.0 1.6 0.00 0.00 0.00 90 1013.9
20260507032025 7 223 0.0 1.6 0.00 0.00 0.00 90 1014.0
20260507031504 7 224 0.0 1.6 0.00 0.00 0.00 91 1014.1
20260507031004 7 221 0.0 1.6 0.00 0.00 0.00 91 1014.0
20260507030504 7 0 0.0 0.0 0.00 0.00 0.00 91 1014.1
20260507030025 7 0 0.0 0.0 0.00 0.00 0.00 91 1014.0
20260507025504 7 223 0.0 3.2 0.00 0.00 0.00 90 1014.2
20260507025004 7 223 0.0 3.2 0.00 0.00 0.00 91 1014.2
20260507024504 7 224 0.0 1.6 0.00 0.00 0.00 91 1014.0
20260507024004 7 225 0.0 1.6 0.00 0.00 0.00 92 1014.0
20260507023504 7 223 0.0 1.6 0.00 0.00 0.00 91 1013.9
20260507023004 7 221 0.0 1.6 0.00 0.00 0.00 91 1014.1
20260507022504 8 221 1.6 1.6 0.00 0.00 0.00 90 1014.1
20260507022025 7 222 0.0 1.6 0.00 0.00 0.00 90 1014.0
20260507021504 7 224 0.0 1.6 0.00 0.00 0.00 90 1013.9
20260507021004 7 230 0.0 1.6 0.00 0.00 0.00 90 1013.9
20260507020504 8 230 0.0 1.6 0.00 0.00 0.00 90 1013.9
20260507020025 8 232 0.0 1.6 0.00 0.00 0.00 89 1013.9
20260507015504 8 239 0.0 1.6 0.00 0.00 0.00 89 1013.9
20260507015025 8 235 0.0 1.6 0.00 0.00 0.00 89 1013.7
20260507014504 8 224 0.0 3.2 0.00 0.00 0.00 89 1013.8
20260507014004 8 223 1.6 3.2 0.00 0.00 0.00 89 1013.8
20260507013525 8 224 1.6 1.6 0.00 0.00 0.00 89 1013.8
20260507013004 8 225 0.0 1.6 0.00 0.00 0.00 89 1013.8
20260507012504 8 225 1.6 3.2 0.00 0.00 0.00 89 1013.9
20260507012004 8 225 1.6 3.2 0.00 0.00 0.00 88 1014.1
20260507011525 8 224 0.0 1.6 0.00 0.00 0.00 88 1014.1
20260507011004 8 224 1.6 3.2 0.00 0.00 0.00 88 1014.2
20260507010504 8 221 1.6 3.2 0.00 0.00 0.00 89 1014.1
20260507010005 8 220 1.6 3.2 0.00 0.00 0.00 89 1014.2
20260507005505 8 223 1.6 3.2 0.00 0.00 0.00 89 1013.9
20260507005005 8 226 1.6 3.2 0.00 0.00 0.00 89 1014.1
20260507004505 8 225 1.6 3.2 0.00 0.00 0.00 88 1014.1
20260507004005 8 219 0.0 3.2 0.00 0.00 0.00 87 1014.5
20260507003505 8 220 0.0 1.6 0.00 0.00 0.00 87 1014.1
20260507003005 8 223 0.0 1.6 0.00 0.00 0.00 87 1014.3
20260507002505 8 225 0.0 1.6 0.00 0.00 0.00 88 1014.2
20260507002005 8 223 0.0 1.6 0.00 0.00 0.00 88 1014.1
20260507001526 8 223 0.0 1.6 0.00 0.00 0.00 88 1014.1
20260507001005 8 225 0.0 1.6 0.00 0.00 0.00 88 1014.3
20260507000505 9 223 0.0 1.6 0.00 0.00 0.00 87 1014.0
20260507000005 9 224 0.0 1.6 0.00 0.00 0.00 88 1014.1
20260506235505 9 227 0.0 1.6 0.00 0.00 0.00 88 1014.2
20260506235004 9 228 0.0 1.6 0.00 0.00 0.00 88 1014.1
20260506234505 9 0 0.0 0.0 0.00 0.00 0.00 87 1014.2
20260506234004 10 0 0.0 0.0 0.00 0.00 0.00 86 1013.9
20260506233505 9 0 0.0 0.0 0.00 0.00 0.00 86 1014.0
20260506233005 10 247 0.0 1.6 0.00 0.00 0.00 86 1014.0
20260506232526 10 247 0.0 1.6 0.00 0.00 0.00 86 1014.1
20260506232004 10 0 0.0 0.0 0.00 0.00 0.00 87 1014.0
20260506231505 10 0 0.0 0.0 0.00 0.00 0.00 87 1013.8
20260506231005 10 270 1.6 3.2 0.00 0.00 0.00 87 1013.9
20260506230504 10 261 1.6 3.2 0.00 0.00 0.00 86 1013.9
20260506230005 10 248 0.0 3.2 0.00 0.00 0.00 84 1013.9
20260506225505 10 187 0.0 1.6 0.00 0.00 0.00 84 1013.7
20260506225005 10 197 0.0 1.6 0.00 0.00 0.00 82 1013.8
20260506224505 10 222 0.0 1.6 0.00 0.00 0.00 83 1013.5
20260506224005 10 230 0.0 1.6 0.00 0.00 0.00 84 1013.8
20260506223505 10 228 0.0 1.6 0.00 0.00 0.00 84 1013.7
20260506223005 10 227 0.0 1.6 0.00 0.00 0.00 84 1013.6
20260506222504 10 225 1.6 3.2 0.00 0.00 0.00 83 1013.6
20260506222025 10 231 1.6 3.2 0.00 0.00 0.00 83 1013.7
20260506221505 10 255 0.0 3.2 0.00 0.00 0.00 83 1013.5
20260506221005 10 236 0.0 1.6 0.00 0.00 0.00 82 1013.6
20260506220525 10 230 0.0 3.2 0.00 0.00 0.00 81 1013.6
20260506220026 10 226 0.0 3.2 0.00 0.00 0.00 81 1013.7
20260506215504 10 223 0.0 1.6 0.00 0.00 0.00 81 1013.5
20260506215006 10 222 0.0 1.6 0.00 0.00 0.00 81 1013.6
20260506214505 10 233 0.0 1.6 0.00 0.00 0.00 81 1013.5
20260506214005 10 232 0.0 1.6 0.00 0.00 0.00 81 1013.7
20260506213025 11 230 0.0 1.6 0.00 0.00 0.00 79 1013.5
20260506212504 11 226 1.6 4.8 0.00 0.00 0.00 77 1013.3
20260506212004 12 227 1.6 4.8 0.00 0.00 0.00 74 1013.4
20260506211504 12 225 1.6 4.8 0.00 0.00 0.00 74 1013.4
20260506211004 12 227 1.6 4.8 0.00 0.00 0.00 75 1013.3
20260506210505 11 230 1.6 4.8 0.00 0.00 0.00 75 1013.4
20260506210005 12 223 1.6 6.4 0.00 0.00 0.00 75 1013.2
20260506205504 12 213 1.6 6.4 0.00 0.00 0.00 75 1013.3
20260506205004 12 200 1.6 6.4 0.00 0.00 0.00 75 1013.0
20260506204504 12 190 1.6 6.4 0.00 0.00 0.00 74 1013.2
20260506204004 12 180 1.6 6.4 0.00 0.00 0.00 74 1013.1
20260506203504 12 230 1.6 4.8 0.00 0.00 0.00 73 1013.0
20260506203004 12 246 1.6 9.7 0.00 0.00 0.00 73 1012.7
20260506202505 12 238 1.6 9.7 0.00 0.00 0.00 73 1012.7
20260506202004 12 208 0.0 3.2 0.00 0.00 0.00 74 1012.7
20260506201504 12 222 0.0 1.6 0.00 0.00 0.00 74 1012.6
20260506201004 12 231 0.0 3.2 0.00 0.00 0.00 72 1012.7
20260506200504 12 228 0.0 3.2 0.00 0.00 0.00 71 1012.5
20260506200004 13 229 1.6 4.8 0.00 0.00 0.00 70 1012.4
20260506195504 13 234 1.6 4.8 0.00 0.00 0.00 70 1012.3
20260506195004 13 246 1.6 6.4 0.00 0.00 0.00 70 1012.2
20260506194505 13 248 3.2 6.4 0.00 0.00 0.00 69 1012.0
20260506194025 13 240 3.2 6.4 0.00 0.00 0.00 68 1012.0
20260506193504 13 233 1.6 6.4 0.00 0.00 0.00 66 1012.3
20260506193025 13 230 1.6 9.7 0.00 0.00 0.00 66 1011.8
20260506192504 13 237 1.6 9.7 0.00 0.00 0.00 66 1011.9
20260506192004 13 250 3.2 6.4 0.00 0.00 0.00 66 1011.7
20260506191504 13 252 3.2 11.3 0.00 0.00 0.00 66 1011.5
20260506191004 14 247 1.6 11.3 0.00 0.00 0.00 65 1011.5
20260506190504 14 242 1.6 4.8 0.00 0.00 0.00 64 1011.5
20260506190005 15 233 0.0 3.2 0.00 0.00 0.00 65 1011.5
20260506185525 15 225 0.0 4.8 0.00 0.00 0.00 64 1011.7
20260506185004 15 228 0.0 4.8 0.00 0.00 0.00 62 1011.7
20260506184504 15 225 0.0 3.2 0.00 0.00 0.00 62 1011.5
20260506184004 15 234 0.0 3.2 0.00 0.00 0.00 61 1011.3
20260506183504 15 238 0.0 3.2 0.00 0.00 0.00 65 1011.5
20260506183025 16 220 0.0 3.2 0.00 0.00 0.00 61 1011.4
20260506182504 16 225 1.6 4.8 0.00 0.00 0.00 57 1011.2
20260506182004 16 240 1.6 4.8 0.00 0.00 0.00 58 1011.2
20260506181504 16 228 1.6 4.8 0.00 0.00 0.00 58 1011.0
20260506181004 16 198 1.6 6.4 0.00 0.00 0.00 60 1011.0
20260506180504 15 177 1.6 6.4 0.00 0.00 0.00 63 1010.9
20260506180005 15 143 1.6 6.4 0.00 0.00 0.00 63 1010.9
20260506175504 14 120 3.2 6.4 0.00 0.00 0.00 64 1010.9
20260506175025 14 128 1.6 6.4 0.00 0.00 0.00 64 1010.9
20260506174504 14 180 1.6 3.2 0.00 0.00 0.00 63 1010.8
20260506174005 15 155 1.6 9.7 0.00 0.00 0.00 62 1010.9
20260506173525 15 137 3.2 9.7 0.00 0.00 0.00 60 1010.9
20260506173004 15 120 1.6 6.4 0.00 0.00 0.00 60 1010.7
20260506172504 16 44 1.6 4.8 0.00 0.00 0.00 59 1010.8
20260506172004 16 33 1.6 4.8 0.00 0.00 0.00 59 1010.7
20260506171504 16 256 1.6 6.4 0.00 0.00 0.00 60 1010.7
20260506171004 16 247 1.6 6.4 0.00 0.00 0.00 60 1010.7
20260506170504 16 235 1.6 4.8 0.00 0.00 0.00 59 1010.8
20260506170004 16 298 1.6 11.3 0.00 0.00 0.00 60 1010.8
20260506165504 16 274 1.6 11.3 0.00 0.00 0.00 59 1010.5
20260506165004 16 258 1.6 6.4 0.00 0.00 0.00 59 1010.6
20260506164525 16 272 1.6 6.4 0.00 0.00 0.00 59 1010.5
20260506164004 16 245 1.6 6.4 0.00 0.00 0.00 57 1010.6
20260506163504 17 269 1.6 11.3 0.00 0.00 0.00 56 1010.4
20260506163004 17 292 1.6 11.3 0.00 0.00 0.00 57 1010.5
20260506162525 18 293 3.2 11.3 0.00 0.00 0.00 55 1010.4
20260506162025 18 296 3.2 11.3 0.00 0.00 0.00 53 1010.4
20260506161504 18 339 3.2 14.5 0.00 0.00 0.00 53 1010.4
20260506161025 18 324 4.8 14.5 0.00 0.00 0.00 53 1010.3
20260506160504 18 304 4.8 14.5 0.00 0.00 0.00 51 1010.6
20260506160004 18 301 3.2 11.3 0.00 0.00 0.00 52 1010.3
20260506155504 19 308 3.2 12.9 0.00 0.00 0.00 48 1010.4
20260506155004 19 356 3.2 12.9 0.00 0.00 0.00 50 1010.4
20260506154504 20 43 1.6 6.4 0.00 0.00 0.00 48 1010.5
20260506154004 19 44 3.2 12.9 0.00 0.00 0.00 49 1010.3
20260506153504 18 54 3.2 12.9 0.00 0.00 0.00 48 1010.7
20260506153004 19 326 3.2 12.9 0.00 0.00 0.00 48 1010.5
20260506152504 19 287 3.2 11.3 0.00 0.00 0.00 51 1010.4
20260506152025 18 316 3.2 11.3 0.00 0.00 0.00 48 1010.4
20260506151525 18 302 1.6 9.7 0.00 0.00 0.00 49 1010.6
20260506151004 17 314 3.2 14.5 0.00 0.00 0.00 55 1010.8
20260506150504 17 313 4.8 16.1 0.00 0.00 0.00 52 1010.6
20260506150005 18 299 3.2 16.1 0.00 0.00 0.00 48 1010.8
20260506145504 18 295 3.2 11.3 0.00 0.00 0.00 48 1010.8
20260506145004 18 326 3.2 11.3 0.00 0.00 0.00 49 1010.7
20260506144504 17 356 3.2 12.9 0.00 0.00 0.00 54 1010.9
20260506144004 17 32 3.2 12.9 0.00 0.00 0.00 52 1011.0
20260506143525 18 356 3.2 11.3 0.00 0.00 0.00 52 1010.9
20260506143004 19 349 3.2 11.3 0.00 0.00 0.00 48 1010.9
20260506142504 18 48 3.2 11.3 0.00 0.00 0.00 51 1011.0
20260506142004 19 16 3.2 11.3 0.00 0.00 0.00 51 1011.0
20260506141504 19 34 3.2 12.9 0.00 0.00 0.00 52 1011.0
20260506141004 19 36 3.2 12.9 0.00 0.00 0.00 49 1011.3
20260506140525 19 4 3.2 9.7 0.00 0.00 0.00 50 1011.3
20260506140005 18 30 3.2 11.3 0.00 0.00 0.00 52 1011.4
20260506135504 18 15 4.8 16.1 0.00 0.00 0.00 52 1011.6
20260506135005 18 24 4.8 16.1 0.00 0.00 0.00 52 1011.3
20260506134504 18 26 3.2 16.1 0.00 0.00 0.00 52 1011.4
20260506134004 18 348 3.2 9.7 0.00 0.00 0.00 51 1011.3
20260506133504 18 50 3.2 11.3 0.00 0.00 0.00 52 1011.4